Location: Bennemühlen
(52.5740°N, 9.7135°E)
Time: 21:03:48
(UTC+00:00)

Cosmos 220 Rocket - Pass Details

Date: 19 May 2025
Orbit: 546 x 580 km, 74.0° (Epoch: 15 June)

Event Time Altitude Azimuth Distance (km) Brightness Sun altitude
Exits shadow 21:57:49 14° 214° (SW) 1,610 5.9 -15.4°
Maximum altitude 22:01:19 69° 297° (WNW) 594 4.1 -15.6°
Drops below altitude 10° 22:05:22 10° 22° (NNE) 1,832 7.2 -15.8°
Sets 22:07:35 0° 25° (NNE) 2,729 8.2 -15.9°
